Weather in Cheuskino

Russia / Khanty-Mansi Autonomous Okrug — Yugra     61°07′19″N   72°26′07″E
temp.,
°C
wind,
m/s
gust,
m/s
humid.,
%
clouds,
%
prec.,
mm/h
press.,
hPa
HPBL,
m
6 may, thu
thu623:00+14s5117111 0.3 998245
02:00+12sse61369100 0.0 995225
05:00+12sse71469100 0.0 992277
08:00+14s81462100 0.0 990652
11:00+14wsw81179100 1.0 9901149
14:00+9w12166899 0.4 9951227
17:00+10wsw9145789 0.4 9971872
20:00+9wsw8136225 0.1 999709
7 may, fri
fri723:00+7wsw814679 0.1 1001590
02:00+6wsw8137160 0.1 1001838
05:00+3w9146982 0.1 10031164
08:00+4w10136479 0.0 10051306
11:00+5w101558100 0.0 10061560
14:00+9w111748100 0.0 10082116
17:00+11wnw10164497 0.0 10092240
20:00+9wnw815509 0.0 1011569
8 may, sat
sat823:00+4nnw48681 0.0 1013201
02:00+3wnw411690 0.0 1015334
05:00+2nw410720 0.0 1017372
08:00+5nw57575 0.0 1018543
11:00+9nw45445 0.0 1018816
14:00+13nw34435 0.0 1018973
17:00+14ne214423 0.0 1018814
20:00+11ese465668 0.0 1018116
9 may, sun
sun923:00+9se476589 0.0 1019163
02:00+9sw359029 0.1 1020138
05:00+8nw47882 0.1 1021177
08:00+10nne45630 0.0 1023499
11:00+14ne44470 0.0 10241024
14:00+15ne33390 0.0 10241394
17:00+16ene22360 0.0 10241546
20:00+13ese335171 0.0 102436
10 may, mon
mon1023:00+10se45608 0.0 102499
02:00+8s36754 0.0 1024112
05:00+8ssw3476100 0.0 102482
08:00+13w345693 0.0 1023302
11:00+17nw4538100 0.0 10221176
14:00+19nnw45335 0.0 10212283
17:00+19n35319 0.0 10202299
20:00+15e454963 0.0 101985